Wetbulb
57.00 57.68 57.53 54.69 52.35 55.13 50.20 51.24 48.03 50.70 54.62 58.97 62.13 62.46 63.49 65.78 67.64 69.08 68.46 69.45 70.72 72.19 72.48 72.25 71.03 71.18 71.43 71.81 71.43 70.46 69.60 71.04
55.86 57.52 56.85 56.85 57.51 51.16 51.78 46.12 45.11 48.90 49.58 53.05 56.81 58.47 62.71 63.81 66.44 69.15 68.39 69.25 70.60 71.35 71.60 71.06 70.64 71.22 71.38 71.71 71.06 70.53 70.16 70.31
56.20 54.79 53.80 54.39 53.88 55.05 54.35 52.39 47.71 46.60 50.48 58.00 57.22 58.91 60.25 64.51 66.93 68.93 67.99 68.05 69.87 71.29 71.86 70.27 70.54 70.47 70.59 70.61 70.29 69.82 70.19 69.79
52.78 56.78 57.86 57.04 55.30 55.65 51.31 51.75 51.96 50.66 49.95 59.34 59.18 59.95 61.14 62.70 67.10 68.91 69.77 67.54 67.92 70.86 71.23 69.42 69.71 69.12 69.20 69.49 69.15 69.18 69.13 68.90
51.61 54.73 56.42 55.14 56.42 56.61 56.16 55.39 52.13 48.95 51.64 61.17 60.73 61.66 63.17 63.56 66.68 68.74 69.81 68.52 67.43 69.22 69.45 68.95 69.27 69.30 68.79 68.96 67.67 67.78 68.39 68.08
48.77 52.00 54.38 53.52 54.79 56.19 55.25 52.29 52.62 52.57 53.96 56.94 59.15 60.37 61.72 64.03 66.41 67.86 69.00 68.78 68.07 68.24 68.47 69.09 69.23 69.74 69.56 68.66 67.71 67.51 67.61 67.22
54.47 54.42 54.58 54.17 54.49 55.03 54.54 55.04 52.68 53.86 54.38 57.67 59.25 60.00 62.08 62.83 64.15 66.49 66.89 67.68 68.22 67.85 68.07 69.15 69.31 69.74 69.36 68.86 68.54 68.59 67.54 67.52
53.33 54.59 54.25 52.66 54.27 55.08 55.31 55.23 55.50 55.05 54.55 58.38 59.05 60.30 59.63 60.83 62.72 64.49 66.32 66.99 67.93 68.41 68.48 68.71 68.83 68.78 68.45 68.44 67.82 68.90 68.36 67.52
51.72 54.65 54.11 51.62 54.58 55.26 55.94 57.04 56.17 52.64 56.27 58.59 57.84 58.83 60.05 62.52 63.24 63.71 65.47 67.11 67.33 67.94 68.51 68.78 68.50 67.79 67.18 67.88 68.18 68.41 68.50 68.17
52.54 54.54 47.03 54.76 58.52 57.73 56.32 56.95 57.33 56.89 57.34 57.91 58.87 61.46 63.59 64.38 63.76 63.90 64.98 66.76 67.67 68.21 68.77 68.76 67.78 66.49 68.01 67.20 68.13 68.36 68.33 68.11
51.51 51.20 53.39 54.15 55.79 55.61 55.26 55.33 58.65 57.75 57.57 57.97 60.09 62.81 62.43 63.90 64.25 64.89 66.19 67.86 68.62 69.11 68.81 68.28 67.36 67.27 67.60 67.53 67.47 67.24 67.19 67.66
53.06 48.60 46.88 54.85 57.86 59.93 59.08 52.23 58.35 57.96 57.74 58.02 60.41 55.98 60.42 65.42 64.80 65.88 67.32 68.60 68.65 68.49 67.83 67.38 67.98 67.51 67.49 67.09 67.37 66.67 67.01 67.32
51.68 50.43 52.41 58.31 58.45 59.51 50.77 53.24 59.33 58.85 58.99 59.61 60.14 61.07 64.80 66.23 65.99 66.87 67.36 68.00 68.64 68.09 66.88 67.70 69.08 68.84 67.79 67.27 66.70 67.62 67.72 67.14
52.73 50.59 48.45 59.12 57.40 54.56 60.10 61.41 60.57 61.25 61.41 61.66 63.86 65.11 65.10 66.08 66.39 66.37 66.57 66.81 67.68 67.12 67.20 68.69 69.70 69.48 68.50 68.13 70.42 69.32 68.52 67.87
54.59 54.93 59.99 59.96 59.44 61.30 61.89 61.24 62.38 63.02 63.83 64.23 64.29 64.36 65.08 65.64 66.31 66.40 66.78 66.72 67.12 67.12 68.29 69.14 69.59 69.52 68.22 70.05 70.41 69.54 69.40 68.05
54.55 57.91 57.51 57.93 59.67 61.29 62.14 62.01 62.93 63.33 63.23 64.47 64.60 64.16 64.45 65.55 65.74 65.94 66.40 66.42 66.97 66.71 66.39 66.88 68.13 68.45 69.00 69.63 69.47 68.10 67.09 66.20
55.05 57.09 57.10 58.65 59.64 59.72 60.52 61.57 61.69 62.73 63.09 64.14 64.57 63.62 63.63 63.38 64.01 64.46 65.22 65.39 65.73 66.38 66.34 66.31 67.75 67.38 67.43 67.59 67.06 66.05 65.83 65.49
52.07 55.16 55.70 56.86 57.47 59.32 59.41 60.62 61.21 62.14 62.58 63.62 63.54 62.25 62.24 62.59 64.26 64.64 65.26 65.06 65.46 65.74 65.78 64.90 65.12 65.25 66.38 67.43 67.08 66.84 65.30 64.52
55.01 55.69 56.05 56.80 57.73 59.03 58.80 59.96 60.65 61.47 61.81 61.04 61.87 62.07 62.28 62.99 64.61 60.51 64.91 64.76 64.74 64.44 64.33 64.85 64.67 64.62 65.24 65.87 66.30 65.89 64.88 63.98
MSLP
999.75 1000.14 1000.35 1000.90 1001.30 1000.95 1001.22 1002.05 1002.26 1001.66 1002.20 1002.57 1002.94 1003.35 1003.82 1004.13 1004.54 1005.34 1007.05 1007.87 1008.86 1009.99 1011.07 1011.85 1012.59 1013.32 1014.03 1014.53 1014.97 1015.26 1015.43 1015.90
1000.19 1000.71 1001.20 1000.67 1000.53 1001.13 1001.10 1001.18 1001.39 1001.08 1001.63 1001.12 1002.05 1002.30 1002.99 1003.68 1004.20 1004.95 1006.66 1007.54 1008.39 1009.37 1010.63 1011.40 1012.16 1012.97 1013.68 1014.23 1014.63 1014.94 1015.18 1015.50
1000.12 999.91 999.53 1000.78 1000.52 1000.69 1000.46 1001.32 1000.90 1000.69 1000.27 1001.04 1001.61 1001.96 1002.41 1003.06 1003.92 1004.77 1005.92 1006.87 1007.72 1008.77 1010.15 1011.04 1011.69 1012.50 1013.24 1013.86 1014.28 1014.60 1014.87 1015.19
999.09 999.53 999.80 999.11 999.40 999.95 1000.20 1000.91 1001.17 1001.42 1000.73 1001.03 1001.44 1001.83 1002.27 1002.70 1003.52 1004.41 1005.22 1006.18 1007.17 1008.20 1009.56 1010.49 1011.23 1011.95 1012.68 1013.25 1013.64 1013.93 1014.36 1014.89
998.40 999.63 1000.06 999.62 999.66 999.61 999.85 999.95 1000.64 1000.94 1000.52 1001.43 1001.86 1002.23 1002.44 1002.64 1003.14 1004.12 1004.90 1005.83 1006.77 1007.79 1008.79 1009.84 1010.67 1011.43 1012.11 1012.67 1012.84 1013.22 1013.90 1014.42
997.37 997.97 998.28 998.99 999.20 999.67 999.52 999.65 999.83 1000.14 1000.69 1000.81 1001.50 1002.10 1002.34 1002.82 1003.36 1003.86 1004.60 1005.27 1006.30 1007.21 1008.11 1009.27 1010.09 1010.97 1011.77 1012.27 1012.45 1012.83 1013.47 1013.74
997.72 997.45 997.59 997.90 998.55 999.24 999.28 999.50 999.73 999.83 1000.37 1000.82 1001.65 1002.12 1002.34 1002.62 1002.99 1003.71 1004.39 1004.97 1005.63 1006.31 1007.42 1008.70 1009.63 1010.54 1011.32 1011.87 1012.26 1012.77 1013.14 1013.43
997.70 998.14 998.13 997.93 998.14 998.65 999.18 999.32 1000.05 1000.46 1000.83 1001.10 1001.77 1002.07 1002.17 1002.32 1002.64 1003.18 1003.93 1004.68 1005.44 1006.24 1007.14 1008.22 1009.09 1009.94 1010.75 1011.39 1011.80 1012.46 1012.86 1013.00
997.90 998.55 998.52 998.13 998.14 998.62 998.90 999.76 1000.09 1000.32 1000.64 1001.24 1001.52 1001.74 1001.87 1002.15 1002.43 1002.92 1003.39 1004.18 1004.98 1005.70 1006.61 1007.72 1008.58 1009.34 1010.09 1010.76 1011.39 1011.95 1012.38 1012.60
998.08 999.03 998.72 998.11 998.62 998.74 999.24 999.72 1000.26 1000.54 1000.86 1001.18 1001.38 1001.68 1002.04 1002.17 1002.42 1002.52 1002.90 1003.61 1004.49 1005.36 1006.33 1007.47 1007.96 1008.78 1009.62 1010.18 1010.92 1011.43 1011.79 1012.00
998.65 998.73 998.44 999.23 999.72 999.60 999.50 999.78 1000.15 1000.44 1000.72 1000.97 1001.26 1001.82 1001.42 1002.06 1002.45 1002.64 1002.96 1003.57 1004.25 1005.02 1006.17 1006.79 1007.48 1008.29 1009.11 1009.81 1010.27 1010.72 1010.98 1011.22
999.01 998.63 997.84 997.93 998.16 999.68 1000.13 999.85 999.88 1000.45 1000.71 1000.79 1001.35 1000.99 1000.88 1002.16 1002.67 1002.93 1003.26 1003.68 1004.36 1005.26 1005.85 1006.54 1007.30 1007.80 1008.65 1009.13 1009.68 1009.97 1010.25 1010.54
999.00 998.98 998.67 999.18 999.77 1000.39 1000.49 1000.40 1000.17 1000.48 1000.57 1000.74 1001.16 1001.07 1002.00 1002.32 1002.81 1003.21 1003.57 1004.07 1004.69 1005.11 1005.57 1006.21 1006.93 1007.53 1007.89 1008.42 1008.85 1009.23 1009.60 1009.73
999.40 999.20 999.68 1000.17 1000.61 1000.72 1001.29 1000.71 1000.88 1000.97 1000.91 1000.81 1001.03 1001.39 1001.87 1002.40 1002.75 1003.17 1003.66 1004.17 1004.72 1005.15 1005.58 1006.11 1006.91 1007.45 1007.73 1008.10 1008.31 1008.84 1009.19 1009.42
1000.00 1000.12 1001.24 1001.21 1001.53 1001.79 1002.00 1002.05 1001.77 1001.72 1001.51 1001.17 1001.18 1001.30 1001.69 1002.18 1002.73 1003.09 1003.63 1004.20 1004.72 1005.30 1005.88 1006.43 1006.99 1007.64 1007.87 1008.02 1008.37 1008.55 1009.07 1009.44
1001.38 1001.42 1001.73 1001.93 1002.00 1002.14 1002.19 1002.21 1002.06 1001.86 1001.62 1001.52 1001.44 1001.68 1002.23 1002.66 1003.18 1003.58 1004.18 1004.71 1005.30 1005.83 1006.22 1006.59 1007.05 1007.56 1007.89 1007.96 1008.54 1008.91 1008.82 1009.04
1001.80 1002.20 1002.34 1002.31 1002.98 1003.11 1002.84 1002.54 1002.19 1001.85 1001.53 1001.29 1001.48 1002.12 1002.66 1003.23 1003.67 1004.11 1004.67 1005.24 1005.71 1006.15 1006.48 1006.80 1007.31 1007.69 1008.00 1008.29 1008.58 1008.54 1008.62 1008.83
1002.31 1003.69 1003.58 1003.45 1003.80 1003.58 1003.19 1002.69 1002.37 1002.08 1001.81 1001.68 1001.88 1002.48 1003.15 1003.64 1003.99 1004.57 1005.20 1005.79 1006.19 1006.64 1006.90 1007.40 1007.81 1008.14 1008.40 1008.53 1008.53 1008.51 1008.48 1008.41
1004.00 1004.52 1004.51 1004.46 1004.08 1003.74 1003.47 1003.17 1002.74 1002.45 1002.29 1002.19 1002.37 1002.81 1003.29 1004.01 1004.64 1005.53 1005.78 1006.29 1006.64 1007.00 1007.47 1007.86 1008.06 1008.33 1008.62 1008.79 1008.73 1008.74 1008.73 1008.72
Wind_Speed
14 8 10 11 10 6 2 3 8 7 6 9 8 8 9 10 13 21 19 19 20 19 16 15 13 12 10 9 7 5 4 3
9 9 4 8 11 9 9 7 9 6 6 2 5 7 8 13 15 18 19 19 19 18 16 15 14 12 11 9 8 6 5 5
11 13 15 8 11 9 6 5 8 6 4 7 2 2 5 9 14 17 20 20 19 18 16 15 13 13 11 10 8 7 5 5
16 5 6 15 18 16 10 11 6 8 8 5 4 3 3 4 11 16 20 20 18 18 17 16 15 13 11 10 9 7 5 5
13 9 6 11 11 13 16 10 7 9 2 6 4 4 4 7 10 13 17 19 19 19 19 17 15 13 11 10 9 7 5 7
15 17 14 18 15 17 16 13 10 10 12 9 4 7 7 8 10 12 15 19 19 19 19 17 15 13 11 10 8 7 6 7
19 17 13 15 18 18 20 16 15 11 7 10 7 11 10 9 8 13 16 20 22 22 19 17 15 13 11 10 8 7 7 8
15 11 14 14 17 17 18 12 8 8 11 8 7 10 12 14 11 13 17 19 20 20 19 17 16 13 11 10 9 9 9 9
14 11 10 15 14 16 12 10 10 9 7 10 12 13 13 13 13 12 14 16 18 21 19 15 15 13 12 11 10 10 9 8
6 8 14 1 1 12 13 12 10 7 8 10 11 12 13 12 12 11 12 15 17 17 16 15 15 14 12 11 11 10 10 9
8 13 12 8 5 8 11 11 9 8 9 10 7 9 8 2 3 4 7 11 14 15 16 15 14 13 12 12 12 11 11 10
9 17 20 12 9 8 2 9 10 4 8 8 3 10 8 6 5 7 9 11 13 15 15 14 13 14 14 14 13 13 11 10
13 12 11 10 9 7 10 3 7 7 7 6 9 5 4 6 7 7 9 12 14 14 13 13 12 13 14 15 15 14 11 9
11 11 13 9 8 10 6 6 5 9 9 10 11 6 6 7 9 10 11 13 14 12 11 11 9 11 14 14 13 11 9 7
4 4 6 4 3 6 7 9 12 10 12 10 12 10 9 10 10 10 11 10 9 8 8 6 6 7 10 12 11 10 7 8
3 7 2 4 5 7 8 10 13 14 13 10 12 8 7 8 8 8 7 7 5 4 5 5 5 7 8 7 4 7 7 6
6 2 5 4 8 11 11 10 10 10 11 11 11 10 10 9 8 7 6 5 4 2 2 1 1 3 4 5 6 5 4 3
5 6 5 6 12 13 10 10 6 4 6 8 10 10 9 8 7 6 6 4 3 3 2 4 4 4 3 2 1 1 4 5
3 7 8 12 11 8 9 11 6 6 7 9 8 8 7 7 6 6 6 5 5 5 5 4 4 5 4 3 2 1 3 4
Wind_Direction
184 156 196 169 216 310 318 255 269 232 187 266 206 227 215 223 219 194 190 189 188 181 181 177 174 171 176 178 186 192 206 208
151 157 160 241 182 196 216 259 252 175 256 241 180 227 214 218 210 191 190 192 189 184 183 180 178 171 181 186 194 203 221 244
166 208 209 178 205 231 309 322 301 246 184 114 326 158 204 209 202 194 191 195 193 187 183 183 179 175 185 195 203 212 222 255
210 123 286 222 214 197 226 180 227 310 304 113 177 172 213 215 195 198 197 195 195 185 186 183 183 182 191 203 215 224 243 245
186 185 176 223 217 228 226 247 271 271 273 120 166 219 240 236 199 197 198 194 190 187 186 186 185 184 198 207 225 233 214 241
217 222 217 208 223 225 234 232 239 214 273 281 300 271 250 243 242 208 204 195 193 194 186 188 183 182 195 212 232 224 242 252
232 251 241 227 213 218 228 241 260 288 321 295 304 296 298 284 251 216 205 202 198 195 185 184 180 182 193 211 213 239 246 248
230 227 230 236 236 210 225 234 248 263 268 303 291 279 276 268 255 230 216 211 204 196 184 184 180 183 193 209 215 222 236 249
217 194 212 229 200 204 200 214 234 242 295 326 303 292 286 283 267 246 225 210 200 195 184 181 182 182 199 206 212 222 230 243
228 168 217 141 320 227 227 218 220 271 296 301 298 299 291 271 259 257 226 201 196 188 177 182 185 188 200 207 208 219 228 235
232 221 237 147 181 190 204 215 231 261 290 284 304 292 259 240 208 205 188 189 184 180 176 184 184 199 200 208 213 217 230 237
206 253 249 258 169 179 161 247 257 224 286 275 264 259 115 129 141 147 159 166 167 177 181 182 199 201 206 210 213 222 229 242
233 244 255 107 127 158 217 314 8 315 286 249 230 299 97 139 149 149 157 162 175 179 188 198 202 213 215 218 218 221 228 236
243 259 234 131 142 237 16 340 354 313 289 242 228 207 176 168 161 164 167 174 182 186 200 210 212 219 227 224 224 214 230 233
296 38 84 78 346 324 313 293 293 299 294 271 248 225 184 166 160 159 165 174 182 205 216 231 230 235 240 240 235 225 197 221
255 129 46 317 320 325 319 293 285 272 262 255 236 203 170 145 142 144 146 161 172 204 247 265 249 235 239 242 162 210 215 224
250 227 310 129 26 351 327 311 291 271 251 220 196 172 159 137 135 124 111 91 69 13 292 291 51 148 175 185 205 224 231 239
338 50 342 354 343 336 325 323 306 252 195 173 170 157 148 146 121 111 100 93 87 86 115 122 124 123 107 106 188 251 247 234
54 342 330 311 309 359 341 330 292 240 198 175 159 153 153 130 110 96 110 125 118 103 111 132 137 111 83 61 31 18 292 299